Вернуться в каталог

STARLINK-36975

АктивенСвязьVLEO
NORAD 67993·PAYLOAD·🇺🇸 United States

Запущен Feb 27, 2026 с Vandenberg Space Force Base

Loading…

Ближайшие Пролёты (ближайшие 24 часа)

TLE

СвежийSource: CelesTrak SupGP

Эпоха: Sep 14, 2026, 20:55 UTC

1 67993C 26039H   26257.87201389  .00047121  00000+0  17069-2 0  2570
2 67993  43.0030  60.5903 0001906 273.4362 166.4648 15.27551261    13

Отслеживайте STARLINK-36975 в реальном времени с AllMySat

Download on the App Store